Weather History for KDRM - December, 2012

Change the Weather History Date:

Thursday, December 6, 2012

  Actual Average (KCIU) Record (KCIU)
Temperature  
Mean Temperature 32 °F -  
Max Temperature 38 °F 32 °F 55 °F (2001)
Min Temperature 26 °F 17 °F -8 °F (1991)
Degree Days  
Heating Degree Days 34    
Moisture  
Dew Point 28 °F    
Average Humidity 80    
Maximum Humidity 91    
Minimum Humidity 73    
Precipitation  
Precipitation 0.00 in - - ()
Sea Level Pressure  
Sea Level Pressure 30.03 in    
Wind  
Wind Speed 10 mph (South)    
Max Wind Speed 15 mph    
Max Gust Speed 24 mph    
Visibility 9 miles    
Events Rain , Snow    
Averages and records for this station are not official NWS values.
T = Trace of Precipitation, MM = Missing Value Source: NWS Daily Summary

Daily Weather History Graph

Daily Weather History Graph

Search for Another Location

Airport or City:

Trip Planner

Search our weather history database for the weather conditions in past years. The results will help you decide how hot, cold, wet, or windy it might be!

Date:

Astronomy

Dec. 06, 2012 Rise Set
Actual Time 8:02 AM EST 4:49 PM EST
Civil Twilight 7:28 AM EST 5:24 PM EST
Nautical Twilight 6:50 AM EST 6:01 PM EST
Astronomical Twilight 6:14 AM EST 6:37 PM EST
Moon No Moon Rise 12:35 PM EST (12/6)
Length of Visible Light 9h 55m
Length of Day
8h 47m
Waning Gibbous, 49% of the Moon is Illuminated
Dec 6
Waning Gibbous
Dec 13
New
Dec 20
First Quarter
Dec 28
Full
Jan 4
Last Quarter

Hourly Weather History & Observations

Time (EST) Temp. Windchill Dew Point Humidity Pressure Visibility Wind Dir Wind Speed Gust Speed Precip Events Conditions
12:16 AM 26.2 °F 22.1 °F 22.6 °F 86% 30.28 in 10.0 mi SSE 3.5 mph - N/A   Clear
12:36 AM 29.3 °F 20.8 °F 23.2 °F 78% 30.27 in 10.0 mi South 9.2 mph - N/A   Clear
12:57 AM 30.2 °F 22.6 °F 23.0 °F 75% 30.28 in 10.0 mi South 8.1 mph - N/A   Clear
1:16 AM 30.2 °F 23.4 °F 23.2 °F 75% 30.27 in 10.0 mi South 6.9 mph - N/A   Scattered Clouds
1:37 AM 30.7 °F 21.4 °F 23.7 °F 75% 30.26 in 10.0 mi South 11.5 mph - N/A   Clear
1:57 AM 30.9 °F 22.2 °F 24.3 °F 76% 30.27 in 10.0 mi South 10.4 mph - N/A   Clear
2:16 AM 31.1 °F 23.1 °F 24.4 °F 76% 30.27 in 10.0 mi South 9.2 mph - N/A   Scattered Clouds
2:37 AM 30.9 °F 23.5 °F 24.6 °F 77% 30.27 in 10.0 mi South 8.1 mph - N/A   Clear
2:56 AM 30.7 °F 23.3 °F 24.8 °F 79% 30.27 in 10.0 mi South 8.1 mph - N/A   Scattered Clouds
3:16 AM 30.9 °F 22.2 °F 24.6 °F 77% 30.25 in 10.0 mi South 10.4 mph 17.3 mph N/A   Clear
3:37 AM 31.1 °F 21.9 °F 24.6 °F 77% 30.24 in 10.0 mi South 11.5 mph 17.3 mph N/A   Clear
3:56 AM 31.3 °F 21.1 °F 24.8 °F 77% 30.23 in 10.0 mi South 13.8 mph 21.9 mph N/A   Clear
4:16 AM 31.8 °F 22.8 °F 24.8 °F 75% 30.21 in 10.0 mi South 11.5 mph 17.3 mph N/A   Clear
4:37 AM 32.0 °F 24.2 °F 25.0 °F 75% 30.21 in 10.0 mi South 9.2 mph - N/A   Clear
4:56 AM 32.0 °F 24.2 °F 25.3 °F 76% 30.20 in 10.0 mi South 9.2 mph 19.6 mph N/A   Clear
5:16 AM 32.0 °F 23.0 °F 25.5 °F 77% 30.20 in 10.0 mi South 11.5 mph 18.4 mph N/A   Clear
5:37 AM 32.0 °F 24.8 °F 25.7 °F 78% 30.20 in 10.0 mi South 8.1 mph 18.4 mph N/A   Scattered Clouds
5:56 AM 32.0 °F 24.2 °F 25.5 °F 77% 30.20 in 10.0 mi South 9.2 mph 18.4 mph N/A   Scattered Clouds
6:16 AM 32.0 °F 23.6 °F 25.9 °F 78% 30.19 in 10.0 mi South 10.4 mph 19.6 mph N/A   Clear
6:37 AM 32.0 °F 22.5 °F 25.7 °F 78% 30.18 in 10.0 mi South 12.7 mph 19.6 mph N/A   Scattered Clouds
6:56 AM 32.0 °F 23.0 °F 26.1 °F 79% 30.17 in 10.0 mi South 11.5 mph 18.4 mph N/A   Mostly Cloudy
7:17 AM 32.0 °F 23.0 °F 26.1 °F 79% 30.16 in 10.0 mi South 11.5 mph 18.4 mph N/A   Overcast
7:36 AM 32.0 °F 23.6 °F 25.9 °F 78% 30.16 in 10.0 mi South 10.4 mph 21.9 mph N/A   Overcast
7:56 AM 32.0 °F 23.0 °F 26.2 °F 79% 30.15 in 10.0 mi South 11.5 mph 17.3 mph N/A   Overcast
8:17 AM 32.0 °F 23.0 °F 26.4 °F 80% 30.13 in 10.0 mi South 11.5 mph 20.7 mph N/A   Overcast
8:36 AM 32.0 °F 22.5 °F 26.6 °F 80% 30.13 in 10.0 mi South 12.7 mph 18.4 mph N/A   Overcast
8:56 AM 32.0 °F 22.5 °F 26.6 °F 80% 30.12 in 10.0 mi South 12.7 mph 18.4 mph N/A   Overcast
9:17 AM 32.0 °F 22.1 °F 26.6 °F 80% 30.11 in 10.0 mi South 13.8 mph 20.7 mph N/A   Overcast
9:36 AM 32.2 °F 22.3 °F 27.0 °F 81% 30.09 in 10.0 mi SSE 13.8 mph 24.2 mph N/A   Overcast
9:57 AM 32.4 °F 23.5 °F 27.3 °F 82% 30.09 in 10.0 mi South 11.5 mph 23.0 mph N/A   Overcast
10:17 AM 32.9 °F 24.1 °F 27.5 °F 81% 30.08 in 10.0 mi South 11.5 mph 19.6 mph N/A   Mostly Cloudy
10:36 AM 33.3 °F 23.2 °F 27.3 °F 79% 30.07 in 10.0 mi South 15.0 mph 24.2 mph N/A   Scattered Clouds
10:57 AM 33.8 °F 24.3 °F 27.5 °F 78% 30.07 in 10.0 mi South 13.8 mph 21.9 mph N/A   Scattered Clouds
11:16 AM 33.8 °F 24.8 °F 27.3 °F 77% 30.05 in 10.0 mi SSE 12.7 mph 24.2 mph N/A   Mostly Cloudy
11:36 AM 33.4 °F 23.9 °F 27.5 °F 79% 30.03 in 10.0 mi South 13.8 mph 20.7 mph N/A   Overcast
11:56 AM 33.8 °F 25.3 °F 27.7 °F 78% 30.02 in 10.0 mi South 11.5 mph 19.6 mph N/A   Overcast
12:16 PM 34.2 °F 25.2 °F 27.9 °F 78% 30.01 in 10.0 mi South 12.7 mph 20.7 mph N/A   Overcast
12:37 PM 34.7 °F 25.5 °F 27.9 °F 76% 29.99 in 10.0 mi South 13.8 mph 21.9 mph N/A   Overcast
12:56 PM 34.9 °F 26.2 °F 27.9 °F 76% 29.98 in 10.0 mi South 12.7 mph 20.7 mph N/A   Overcast
1:16 PM 35.4 °F 27.3 °F 28.2 °F 75% 29.98 in 10.0 mi SSE 11.5 mph 19.6 mph N/A   Overcast
1:36 PM 35.6 °F 28.0 °F 27.9 °F 73% 29.97 in 10.0 mi South 10.4 mph 17.3 mph N/A   Overcast
1:56 PM 35.6 °F 29.9 °F 27.9 °F 73% 29.97 in 10.0 mi South 6.9 mph - N/A   Overcast
2:17 PM 34.7 °F 28.1 °F 28.8 °F 79% 29.95 in 2.5 mi South 8.1 mph - N/A Snow Light Snow
2:36 PM 34.2 °F 28.2 °F 29.3 °F 82% 29.93 in 4.0 mi South 6.9 mph - N/A Snow Light Snow
2:56 PM 33.8 °F 27.7 °F 30.2 °F 87% 29.93 in 4.0 mi SSE 6.9 mph - N/A Snow Light Snow
3:17 PM 33.8 °F 28.6 °F 31.1 °F 90% 29.92 in 4.0 mi SSE 5.8 mph - N/A Snow Light Snow
3:36 PM 33.4 °F 25.9 °F 31.1 °F 91% 29.92 in 2.5 mi SSE 9.2 mph - N/A Snow Light Snow
3:56 PM 34.0 °F 28.8 °F 31.1 °F 89% 29.92 in 3.0 mi SSE 5.8 mph - N/A Snow Light Snow
4:17 PM 34.0 °F 26.6 °F 31.3 °F 90% 29.92 in 1.8 mi South 9.2 mph - N/A Snow Light Snow
4:36 PM 34.3 °F 25.9 °F 31.1 °F 88% 29.91 in 4.0 mi South 11.5 mph 16.1 mph N/A Snow Light Snow
4:57 PM 34.3 °F 28.4 °F 31.1 °F 88% 29.89 in 5.0 mi South 6.9 mph - N/A Rain Light Rain
5:16 PM 34.2 °F 26.2 °F 31.6 °F 90% 29.88 in 10.0 mi SSE 10.4 mph - N/A Rain Light Rain
5:37 PM 34.7 °F 27.5 °F 31.1 °F 87% 29.88 in 10.0 mi SSE 9.2 mph - N/A   Light Drizzle
5:57 PM 34.9 °F 26.6 °F 30.6 °F 84% 29.87 in 10.0 mi SSE 11.5 mph 17.3 mph N/A   Overcast
6:16 PM 35.6 °F 28.0 °F 30.2 °F 81% 29.87 in 10.0 mi South 10.4 mph 17.3 mph N/A   Overcast
6:37 PM 35.8 °F 28.3 °F 30.7 °F 82% 29.85 in 10.0 mi South 10.4 mph 19.6 mph N/A   Overcast
6:56 PM 36.0 °F 28.5 °F 30.7 °F 81% 29.85 in 10.0 mi South 10.4 mph 16.1 mph N/A   Overcast
7:17 PM 36.5 °F 29.2 °F 30.7 °F 80% 29.85 in 10.0 mi South 10.4 mph 16.1 mph N/A   Overcast
7:36 PM 36.5 °F 29.2 °F 30.7 °F 80% 29.85 in 10.0 mi South 10.4 mph 16.1 mph N/A   Overcast
7:56 PM 36.5 °F 29.2 °F 30.7 °F 80% 29.84 in 10.0 mi South 10.4 mph 16.1 mph N/A   Overcast
8:17 PM 36.7 °F 28.9 °F 30.6 °F 78% 29.83 in 10.0 mi South 11.5 mph 18.4 mph N/A   Overcast
8:36 PM 36.9 °F 29.1 °F 30.6 °F 78% 29.83 in 10.0 mi SSW 11.5 mph - N/A   Overcast
8:57 PM 36.9 °F 29.1 °F 30.7 °F 79% 29.82 in 10.0 mi South 11.5 mph 17.3 mph N/A   Overcast
9:16 PM 37.4 °F 30.8 °F 30.9 °F 77% 29.83 in 10.0 mi SSW 9.2 mph - N/A   Overcast
9:36 PM 37.4 °F 30.3 °F 30.9 °F 77% 29.82 in 10.0 mi SSW 10.4 mph - N/A   Overcast
9:57 PM 37.4 °F 31.4 °F 31.1 °F 78% 29.83 in 10.0 mi SSW 8.1 mph - N/A   Overcast
10:16 PM 37.4 °F 31.4 °F 31.5 °F 79% 29.82 in 10.0 mi SSW 8.1 mph - N/A   Overcast
10:36 PM 37.4 °F 30.8 °F 32.0 °F 81% 29.81 in 10.0 mi SSW 9.2 mph 17.3 mph N/A Rain Light Rain
10:57 PM 36.7 °F 31.2 °F 33.1 °F 87% 29.81 in 7.0 mi SSW 6.9 mph - N/A Rain Light Rain
11:17 PM 36.7 °F 29.4 °F 34.0 °F 90% 29.80 in 7.0 mi SSW 10.4 mph 16.1 mph N/A Rain Light Rain
11:36 PM 37.2 °F 30.6 °F 34.0 °F 88% 29.81 in 10.0 mi SW 9.2 mph - N/A   Overcast
11:56 PM 37.4 °F 31.4 °F 34.3 °F 89% 29.81 in 10.0 mi SW 8.1 mph - N/A   Overcast